Location: Unspecified
(48.5539°N, 71.6350°W)
Time: 11:10:02
(UTC-05:00)

ISS - Pass Details

Date: 29 January 2019
Orbit: 403 x 411 km, 51.6° (Epoch: 20 February)

Event Time Altitude Azimuth Distance (km) Brightness Sun altitude
Rises 20:04:26 0° 288° (WNW) 2,342 1.1 -33.7°
Enters shadow 20:06:01 - 291° (WNW) 1,688 0.2 -34.0°
Reaches altitude 10° 20:06:32 10° 292° (WNW) 1,481 - -34.1°
Maximum altitude 20:09:50 60° 13° (NNE) 477 - -34.6°
Drops below altitude 10° 20:13:07 10° 95° (E) 1,482 - -35.1°
Sets 20:15:14 0° 99° (E) 2,343 - -35.5°
